Lawrenceville, GA

9:46 PM EST on December 14, 2019 (GMT -0500)
Gwinnett County-Briscoe

Weather History for KLZU - September, 2019

Change the Weather History Date:

Thursday, September 12, 2019

  Actual Average (WUND) Record (WUND)
Temperature  
Mean Temperature 81 °F -  
Max Temperature 96 °F - - (-1)
Min Temperature 66 °F - - (-1)
Cooling Degree Days 16    
Growing Degree Days 31 (Base 50)    
Moisture  
Dew Point 67 °F    
Average Humidity 73    
Maximum Humidity 100    
Minimum Humidity 27    
Precipitation  
Precipitation 0.00 in - - ()
Sea Level Pressure  
Sea Level Pressure 30.16 in    
Wind  
Wind Speed 1 mph (East)    
Max Wind Speed 10 mph    
Max Gust Speed -    
Visibility 9 miles    
Events      
Averages and records for this station are not official NWS values.
T = Trace of Precipitation, MM = Missing Value Source: NWS Daily Summary

Daily Weather History Graph

Daily Weather History Graph

Search for Another Location

Airport or City:

Astronomy

Sep. 12, 2019 Rise Set
Actual Time 7:16 AM EDT 7:46 PM EDT
Civil Twilight 6:51 AM EDT 8:11 PM EDT
Nautical Twilight 6:22 AM EDT 8:41 PM EDT
Astronomical Twilight 5:52 AM EDT 9:11 PM EDT
Moon 7:24 PM EDT (9/12) 5:43 AM EDT (9/12)
Length of Visible Light 13h 20m
Length of Day
12h 29m
Waxing Gibbous, 98% of the Moon is Illuminated
Sep 12
Waxing Gibbous
Sep 14
Full
Sep 21
Last Quarter
Sep 28
New
Oct 5
First Quarter

Hourly Weather History & Observations

Time (EDT) Temp. Heat Index Dew Point Humidity Pressure Visibility Wind Dir Wind Speed Gust Speed Precip Events Conditions
12:56 AM 72.0 °F - 70.0 °F 93% 30.18 in 10.0 mi Calm Calm - N/A   Clear
1:56 AM 70.0 °F - 69.1 °F 97% 30.17 in 10.0 mi Calm Calm - N/A   Clear
2:56 AM 69.1 °F - 68.0 °F 96% 30.16 in 10.0 mi Calm Calm - N/A   Clear
3:56 AM 69.1 °F - 68.0 °F 96% 30.15 in 9.0 mi Calm Calm - N/A   Clear
4:56 AM 69.1 °F - 68.0 °F 96% 30.15 in 10.0 mi Calm Calm - N/A   Clear
5:56 AM 68.0 °F - 66.9 °F 96% 30.16 in 9.0 mi East 3.5 mph - N/A   Clear
6:56 AM 66.9 °F - 66.9 °F 100% 30.18 in 9.0 mi Calm Calm - N/A   Clear
7:24 AM 68.0 °F - 66.2 °F 94% 30.18 in 2.0 mi Calm Calm - N/A   Clear
7:33 AM 68.0 °F - 66.2 °F 94% 30.18 in 9.0 mi Calm Calm - N/A   Clear
7:56 AM 69.1 °F - 68.0 °F 96% 30.19 in 10.0 mi Calm Calm - N/A   Clear
8:56 AM 77.0 °F - 70.0 °F 79% 30.20 in 10.0 mi Calm Calm - N/A   Clear
9:56 AM 82.0 °F 85.9 °F 70.0 °F 67% 30.21 in 10.0 mi Calm Calm - N/A   Clear
10:56 AM 87.1 °F 91.3 °F 69.1 °F 55% 30.21 in 10.0 mi North 3.5 mph - N/A   Clear
11:56 AM 90.0 °F 95.4 °F 70.0 °F 52% 30.20 in 7.0 mi SE 4.6 mph - N/A   Clear
12:56 PM 91.9 °F 95.9 °F 68.0 °F 45% 30.18 in 7.0 mi Calm Calm - N/A   Clear
1:56 PM 93.9 °F 97.5 °F 66.9 °F 41% 30.16 in 10.0 mi East 6.9 mph - N/A   Clear
2:56 PM 95.0 °F 99.0 °F 66.9 °F 40% 30.14 in 10.0 mi East 10.4 mph - N/A   Clear
3:56 PM 95.0 °F 95.6 °F 62.1 °F 33% 30.12 in 6.0 mi Variable 5.8 mph - N/A   Haze
4:56 PM 96.1 °F 94.8 °F 57.0 °F 27% 30.10 in 7.0 mi ESE 5.8 mph - N/A   Scattered Clouds
5:56 PM 95.0 °F 94.8 °F 60.1 °F 31% 30.10 in 8.0 mi ENE 5.8 mph - N/A   Clear
7:56 PM 82.0 °F 84.1 °F 66.0 °F 58% 30.11 in 10.0 mi Calm Calm - N/A   Clear
8:56 PM 77.0 °F - 69.1 °F 76% 30.13 in 10.0 mi Calm Calm - N/A   Clear
10:56 PM 73.0 °F - 70.0 °F 90% 30.13 in 10.0 mi Calm Calm - N/A   Clear
11:56 PM 72.0 °F - 69.1 °F 91% 30.14 in 10.0 mi Calm Calm - N/A   Clear